| time (UTC) | temp C | wind direction | speed KPH | gust KPH | rain 1hr cm | rain 24hr cm | rain mn cm | humidity % | barometer mb |
| 20260507123614 | 12 | 329 | 1.6 | 1.6 | 0.00 | 0.00 | 0.00 | 80 | 1016.0 |
| 20260507120612 | 12 | 141 | 1.6 | 3.2 | 0.00 | 0.00 | 0.00 | 80 | 1015.0 |
| 20260507113611 | 12 | 117 | 3.2 | 3.2 | 0.00 | 0.00 | 0.00 | 80 | 1015.0 |
| 20260507110610 | 12 | 129 | 6.4 | 4.8 | 0.00 | 0.00 | 0.00 | 81 | 1015.0 |
| 20260507103609 | 12 | 129 | 6.4 | 4.8 | 0.00 | 0.00 | 0.00 | 82 | 1015.0 |
| 20260507100608 | 12 | 131 | 4.8 | 3.2 | 0.00 | 0.00 | 0.00 | 81 | 1015.0 |
| 20260507093607 | 12 | 131 | 4.8 | 3.2 | 0.00 | 0.00 | 0.00 | 82 | 1015.0 |
| 20260507090606 | 13 | 130 | 6.4 | 4.8 | 0.00 | 0.00 | 0.00 | 81 | 1015.0 |
| 20260507083605 | 13 | 130 | 6.4 | 4.8 | 0.00 | 0.00 | 0.00 | 83 | 1015.0 |
| 20260507080604 | 13 | 127 | 6.4 | 3.2 | 0.00 | 0.00 | 0.00 | 82 | 1015.0 |
| 20260507073603 | 13 | 127 | 6.4 | 3.2 | 0.00 | 0.00 | 0.00 | 84 | 1015.0 |
| 20260507070602 | 13 | 127 | 6.4 | 4.8 | 0.00 | 0.00 | 0.00 | 82 | 1015.0 |
| 20260507063600 | 13 | 127 | 6.4 | 4.8 | 0.00 | 0.00 | 0.00 | 85 | 1015.0 |
| 20260507060559 | 13 | 130 | 6.4 | 4.8 | 0.00 | 0.00 | 0.00 | 86 | 1016.0 |
| 20260507053558 | 13 | 129 | 6.4 | 4.8 | 0.00 | 0.00 | 0.00 | 86 | 1016.0 |
| 20260507050557 | 13 | 130 | 6.4 | 4.8 | 0.00 | 0.00 | 0.00 | 83 | 1016.0 |
| 20260507043556 | 13 | 130 | 6.4 | 4.8 | 0.00 | 0.00 | 0.00 | 86 | 1016.0 |
| 20260507040556 | 13 | 137 | 8.0 | 4.8 | 0.00 | 0.00 | 0.00 | 83 | 1016.0 |
| 20260507033554 | 14 | 137 | 8.0 | 4.8 | 0.00 | 0.00 | 0.00 | 86 | 1016.0 |
| 20260507030553 | 14 | 139 | 8.0 | 4.8 | 0.00 | 0.00 | 0.00 | 83 | 1016.0 |
| 20260507023552 | 15 | 139 | 8.0 | 4.8 | 0.00 | 0.00 | 0.00 | 87 | 1015.0 |
| 20260507020551 | 15 | 141 | 6.4 | 4.8 | 0.00 | 0.00 | 0.00 | 83 | 1015.0 |
| 20260507013550 | 15 | 141 | 6.4 | 4.8 | 0.00 | 0.00 | 0.00 | 86 | 1015.0 |
| 20260507010549 | 15 | 141 | 8.0 | 4.8 | 0.00 | 0.00 | 0.00 | 82 | 1014.0 |
| 20260507003548 | 16 | 141 | 8.0 | 4.8 | 0.00 | 0.00 | 0.00 | 87 | 1013.0 |
| 20260507000547 | 16 | 124 | 6.4 | 3.2 | 0.00 | 0.00 | 0.00 | 86 | 1012.0 |
| 20260506233546 | 20 | 124 | 6.4 | 3.2 | 0.00 | 0.00 | 0.00 | 86 | 1012.0 |
| 20260506230545 | 17 | 178 | 1.6 | 1.6 | 0.00 | 0.00 | 0.00 | 83 | 1011.0 |
| 20260506223544 | 20 | 178 | 1.6 | 1.6 | 0.00 | 0.00 | 0.00 | 83 | 1010.0 |
| 20260506220543 | 20 | 301 | 0.0 | 3.2 | 0.00 | 0.00 | 0.00 | 79 | 1009.0 |
| 20260506213542 | 21 | 301 | 0.0 | 3.2 | 0.00 | 0.00 | 0.00 | 80 | 1009.0 |
| 20260506210541 | 21 | 293 | 3.2 | 3.2 | 0.00 | 0.00 | 0.00 | 75 | 1009.0 |
| 20260506203540 | 21 | 293 | 3.2 | 3.2 | 0.00 | 0.00 | 0.00 | 72 | 1009.0 |
| 20260506200539 | 21 | 288 | 3.2 | 3.2 | 0.00 | 0.00 | 0.00 | 75 | 1009.0 |
| 20260506193538 | 21 | 288 | 3.2 | 3.2 | 0.00 | 0.00 | 0.00 | 75 | 1009.0 |
| 20260506190537 | 25 | 298 | 3.2 | 3.2 | 0.00 | 0.00 | 0.00 | 75 | 1010.0 |
| 20260506183536 | 21 | 298 | 3.2 | 3.2 | 0.00 | 0.00 | 0.00 | 70 | 1010.0 |
| 20260506180535 | 21 | 307 | 6.4 | 4.8 | 0.00 | 0.00 | 0.00 | 78 | 1011.0 |
| 20260506173534 | 21 | 307 | 4.8 | 3.2 | 0.00 | 0.00 | 0.00 | 71 | 1011.0 |
| 20260506170533 | 21 | 309 | 6.4 | 3.2 | 0.00 | 0.00 | 0.00 | 79 | 1013.0 |
| 20260506163532 | 21 | 309 | 6.4 | 3.2 | 0.00 | 0.00 | 0.00 | 73 | 1013.0 |
| 20260506160531 | 21 | 315 | 6.4 | 3.2 | 0.00 | 0.00 | 0.00 | 83 | 1014.0 |
| 20260506153530 | 18 | 315 | 6.4 | 3.2 | 0.00 | 0.00 | 0.00 | 78 | 1014.0 |
| 20260506150529 | 19 | 315 | 6.4 | 4.8 | 0.00 | 0.00 | 0.00 | 87 | 1016.0 |
| 20260506143527 | 19 | 315 | 6.4 | 4.8 | 0.00 | 0.00 | 0.00 | 81 | 1015.0 |
| 20260506140527 | 20 | 327 | 4.8 | 3.2 | 0.00 | 0.00 | 0.00 | 88 | 1016.0 |
| 20260506133526 | 15 | 327 | 4.8 | 3.2 | 0.00 | 0.00 | 0.00 | 84 | 1016.0 |
| 20260506130524 | 15 | 328 | 3.2 | 1.6 | 0.00 | 0.00 | 0.00 | 89 | 1016.0 |